Retour au catalogue

OPS 7684 DEB

ActifPO
NORAD 3617·DEBRIS·🇺🇸 United States

Lancé Dec 12, 1968 depuis Vandenberg Space Force Base

Loading…

Prochains Passages (prochaines 24 heures)

TLE

FraisSource: Space-Track

Époque: Sep 14, 2026, 05:31 UTC

1 03617U 68112C   26257.23020721  .00000067  00000-0  33486-3 0  9994
2 03617  80.1849 333.9045 0044074 340.0629  47.1805 12.63544816662266

Suivez OPS 7684 DEB en temps réel avec AllMySat

Download on the App Store